Temperature
15 15 16 16 16 17 18 20 22 21 21 21 21 21 20 19 18 16 14 15 15 15 16 16 15 15 15 15 15 15 15 15 15 15 15 15 15 15 15 15 15 15 15 15 15 15 15 15 15
14 15 15 16 16 17 19 20 20 20 21 20 20 20 19 17 16 15 14 14 15 15 15 15 15 15 15 15 15 15 15 15 15 15 15 15 15 15 15 15 15 15 15 14 15 15 15 15 15
14 14 15 16 17 18 19 20 20 20 20 19 19 18 17 16 14 13 13 14 14 14 15 15 15 15 15 15 15 15 15 15 15 15 15 15 15 15 15 14 14 14 14 14 14 14 15 15 15
14 15 16 16 17 18 19 19 19 20 19 19 18 17 15 13 13 13 13 14 14 14 14 14 14 14 14 15 14 15 14 14 15 14 14 14 14 14 14 14 14 14 14 14 14 14 15 14 14
14 15 16 16 17 18 19 19 19 18 18 18 18 16 14 13 13 13 13 13 13 14 14 14 14 14 14 14 14 14 14 14 14 14 14 14 14 14 14 14 14 14 14 14 14 14 14 14 14
14 16 15 16 17 18 18 18 18 18 17 17 16 16 12 12 13 13 13 13 13 13 13 13 13 13 14 14 14 14 14 14 14 14 14 14 14 14 14 14 14 14 14 14 14 14 14 14 14
14 15 15 16 17 17 17 17 17 16 16 15 15 15 12 12 12 12 12 12 12 12 13 13 13 13 13 13 13 13 13 14 14 14 14 14 14 14 14 14 14 14 14 14 14 14 14 14 14
13 14 15 16 16 16 16 16 16 15 15 14 14 13 11 10 11 11 11 12 12 12 12 13 13 13 13 13 13 13 13 13 13 13 13 13 13 13 13 13 13 13 13 14 14 14 13 13 13
12 13 14 15 15 15 16 15 15 14 14 13 12 11 10 10 10 11 11 11 11 12 12 12 12 12 12 12 12 12 13 13 13 13 13 13 13 13 13 13 13 13 13 13 13 13 13 13 13
12 12 13 14 14 14 14 14 14 14 13 12 11 10 10 9 9 10 10 10 11 11 11 11 11 12 12 12 12 12 12 12 12 12 12 12 12 12 12 12 12 13 13 13 13 13 13 13 12
12 11 12 13 13 12 12 13 12 12 11 10 10 9 9 9 8 9 9 9 9 10 10 10 11 11 11 11 11 12 12 12 12 12 12 12 12 12 12 12 12 12 12 12 12 12 12 12 12
10 11 11 11 11 11 11 11 11 10 9 9 9 8 8 8 8 7 8 8 8 9 9 10 10 10 10 11 11 11 11 11 11 11 11 12 12 12 12 12 12 12 12 12 12 12 12 12 12
9 10 10 9 10 10 10 10 10 9 8 8 8 8 8 7 7 7 7 7 8 8 8 9 9 9 10 10 10 10 11 11 11 11 11 11 11 11 11 11 11 11 11 11 11 11 11 11 11
9 9 9 9 9 10 9 9 9 8 8 8 7 7 7 7 7 6 7 7 7 7 8 8 8 9 9 9 9 10 10 10 10 10 10 11 11 11 11 11 11 11 11 11 11 11 11 11 11
9 8 9 9 9 9 9 8 8 7 7 7 7 6 6 6 6 6 6 6 6 6 7 7 7 8 8 9 9 9 9 10 10 10 10 10 10 10 10 10 11 11 11 11 11 11 11 11 11
9 8 8 8 9 9 8 7 7 7 7 6 6 6 5 5 5 5 5 5 5 6 6 6 7 7 7 8 8 8 9 9 9 9 10 10 10 10 10 10 10 10 10 10 10 10 10 10 10
8 8 8 8 8 9 8 7 6 7 6 6 5 5 4 4 4 4 4 4 5 5 5 6 6 7 7 7 8 8 8 8 9 9 9 9 9 10 10 10 10 10 10 10 10 10 10 10 10
6 7 8 8 8 8 7 6 6 5 5 5 4 4 4 3 3 3 3 4 4 4 5 5 5 6 6 7 7 7 7 8 8 8 9 9 9 9 9 9 9 9 9 9 10 9 10 10 10
7 7 7 8 8 7 6 6 6 5 4 4 3 3 3 2 2 3 3 3 3 4 4 4 5 5 5 6 6 7 7 7 8 8 8 8 9 9 9 9 9 9 9 9 9 9 9 9 9
7 7 6 7 7 7 5 5 6 5 4 3 2 2 2 2 2 2 2 2 2 3 3 4 4 4 4 5 5 6 6 6 7 7 7 8 8 8 8 8 8 8 9 9 9 9 9 9 9
6 6 5 5 6 6 5 5 5 4 3 2 2 1 1 1 1 1 1 2 2 2 2 3 3 4 4 4 4 5 5 6 6 6 7 7 7 7 7 8 8 8 8 8 8 8 8 8 8
5 6 5 5 4 4 5 4 4 3 2 2 1 1 1 0 0 0 1 1 1 1 2 2 2 3 3 3 4 4 4 4 5 6 6 6 7 7 7 7 7 7 7 8 8 8 8 8 8
4 5 5 5 4 3 4 3 3 3 2 1 1 0 0 -0 -0 -0 -0 0 0 1 1 1 2 2 2 2 3 3 3 4 4 5 5 6 6 6 6 7 7 7 7 7 7 7 8 8 8
4 4 4 4 3 3 4 3 3 1 1 1 1 -0 -0 -1 -1 -1 -1 -0 -0 0 0 1 1 1 1 2 2 2 3 3 4 4 4 5 5 5 6 6 6 6 6 7 7 7 7 7 7
3 3 3 3 3 3 4 3 1 0 1 0 -0 -1 -1 -1 -1 -1 -1 -1 -1 -1 -0 0 1 1 1 1 1 2 2 2 3 3 4 4 4 5 5 5 6 6 6 6 6 6 7 7 7
2 2 2 2 3 3 2 2 -0 -0 -0 -1 -1 -1 -1 -1 -1 -2 -2 -2 -2 -1 -1 -1 -0 0 0 0 1 1 1 2 2 2 3 3 3 4 4 5 5 5 5 6 6 6 6 6 6
2 2 2 1 2 1 2 1 -0 -0 -1 -1 -2 -2 -2 -2 -2 -2 -2 -2 -2 -2 -2 -2 -1 -1 -0 -0 -0 0 1 1 1 2 2 2 3 3 4 4 4 5 5 5 5 5 5 6 6
1 1 0 1 1 1 2 1 -0 -1 -2 -2 -2 -3 -3 -3 -3 -3 -3 -3 -2 -2 -2 -2 -2 -1 -1 -1 -1 -0 0 1 1 1 1 1 2 2 3 3 4 4 4 4 5 5 5 5 5
-0 -0 -0 0 1 1 0 -0 -1 -1 -2 -3 -3 -3 -3 -3 -3 -3 -3 -3 -3 -3 -3 -2 -2 -2 -2 -1 -1 -0 -0 0 0 1 1 1 1 2 2 3 3 3 4 4 4 4 4 4 5
-1 -1 -1 -1 -0 0 -1 -1 -1 -2 -2 -2 -3 -3 -3 -3 -3 -3 -3 -3 -3 -3 -3 -3 -3 -2 -2 -2 -2 -1 -1 -0 -0 0 0 0 1 1 2 2 2 3 3 3 3 4 4 4 4
Wind_Speed
14 12 6 2 3 4 6 3 1 2 1 4 6 5 4 5 5 7 3 5 7 6 8 7 8 8 9 10 10 11 11 11 11 11 11 11 11 12 12 12 12 13 13 14 15 15 15 15 15
12 7 4 3 4 6 5 4 1 2 3 5 5 5 4 6 7 7 4 5 6 6 8 8 8 9 10 10 10 10 11 11 11 11 10 11 11 11 12 12 12 12 13 14 14 14 14 14 14
10 7 4 3 5 6 2 2 2 3 6 5 3 3 3 5 6 4 4 5 6 6 7 8 9 9 10 10 10 10 10 10 10 10 10 10 10 11 11 12 12 13 13 14 14 14 14 13 13
5 3 4 5 8 5 1 2 3 2 4 5 4 3 5 6 5 4 6 6 7 6 7 8 9 9 9 9 9 10 10 10 10 10 9 10 10 11 11 12 13 13 13 13 14 14 13 12 11
4 4 5 7 9 4 0 2 2 2 2 4 4 3 5 5 8 7 6 6 6 6 8 8 8 9 9 9 9 9 9 9 9 9 9 9 10 11 11 12 12 13 12 13 13 13 12 11 10
3 4 6 9 8 5 2 1 1 1 1 3 2 2 5 6 8 6 6 6 7 7 8 8 8 8 8 8 8 8 8 8 9 9 9 9 9 10 11 11 12 12 12 12 12 12 11 10 9
3 4 7 7 6 4 2 1 1 1 1 2 2 2 5 6 6 5 6 6 8 9 8 7 7 7 7 7 8 8 8 8 9 9 9 9 9 9 10 10 11 11 11 10 11 11 10 9 8
4 4 6 7 6 4 1 1 0 2 1 3 2 3 3 4 4 5 6 6 7 7 7 8 7 6 5 5 6 7 8 8 8 9 8 9 8 9 9 9 10 10 10 9 10 10 10 8 7
4 4 6 4 3 1 2 1 1 2 3 3 3 5 5 4 5 6 6 5 6 7 6 6 6 6 6 4 5 6 7 7 7 7 8 8 7 7 7 8 9 10 9 9 9 10 9 8 6
2 4 5 2 3 2 2 0 1 1 3 3 4 7 7 5 5 5 5 5 5 5 5 5 6 6 6 4 4 4 5 6 5 5 6 5 6 6 7 8 8 9 9 9 8 8 8 7 5
2 4 3 3 5 3 3 1 1 2 2 2 4 5 5 5 5 4 3 3 4 4 5 5 5 5 5 4 3 2 2 3 4 4 4 5 6 6 6 6 7 7 8 7 6 6 5 5 5
2 4 4 4 5 4 3 2 0 2 2 4 4 4 4 4 4 3 3 4 3 4 4 5 6 5 4 4 2 2 2 1 1 3 4 4 3 4 4 4 5 5 5 5 4 3 4 4 5
3 3 3 4 4 3 2 1 1 2 3 4 4 5 4 4 3 4 4 4 4 4 4 4 5 5 4 3 3 2 1 1 0 2 3 3 3 3 3 3 4 4 5 4 3 2 2 3 4
1 2 3 4 4 3 1 1 1 2 2 3 5 5 5 6 6 5 6 6 5 5 4 4 4 5 4 4 3 3 2 1 1 1 2 3 3 3 3 2 3 3 4 4 3 2 2 3 3
3 4 4 4 3 2 2 3 4 3 2 3 4 5 6 7 8 7 7 6 6 5 5 4 4 5 4 4 3 3 2 1 1 0 2 3 3 3 2 2 2 3 4 4 3 2 3 2 2
5 5 4 3 3 3 3 4 3 2 3 2 3 5 5 6 7 7 8 8 6 5 5 4 5 5 4 4 3 3 2 2 1 0 1 2 3 3 2 2 2 3 4 3 2 2 2 2 2
3 4 5 3 4 3 4 4 1 2 4 3 3 4 5 5 7 8 8 8 7 6 5 5 4 4 4 5 4 3 2 2 2 1 0 1 2 3 2 2 2 4 3 2 2 2 2 2 2
3 4 5 4 3 2 5 4 2 3 4 4 3 4 4 5 6 7 8 8 8 7 6 5 5 6 5 4 3 3 2 3 2 2 2 1 1 2 2 2 3 3 2 2 2 2 2 2 2
5 6 7 3 1 1 4 5 3 5 4 4 4 3 3 4 5 6 7 7 8 8 8 7 6 6 4 3 2 2 2 2 2 1 1 1 1 2 2 2 3 3 3 3 3 2 3 2 2
6 6 5 2 2 3 4 5 4 5 6 5 4 4 4 5 6 6 6 7 7 8 8 7 6 5 5 3 3 2 2 1 2 2 2 2 2 2 3 2 3 3 3 4 4 3 3 2 3
5 3 4 5 5 4 3 4 4 5 6 6 5 4 4 5 5 6 6 7 7 7 8 7 7 6 5 5 3 3 2 2 2 2 1 2 2 2 2 2 3 3 3 4 4 5 4 4 3
5 3 5 5 3 2 3 3 4 6 5 4 3 4 4 5 5 5 6 6 7 6 6 6 6 5 5 5 3 2 3 3 3 2 1 2 2 2 2 2 3 3 3 3 4 4 4 5 5
4 6 6 6 4 4 4 3 2 5 3 1 2 3 4 5 5 5 6 5 5 5 5 5 6 5 5 5 4 3 3 3 2 2 1 1 2 2 2 2 3 4 3 4 4 3 4 4 4
6 5 5 4 2 4 4 3 2 3 2 1 2 3 4 4 4 5 6 6 5 5 5 6 6 6 6 5 5 4 3 3 3 3 2 1 1 1 2 2 2 3 3 4 4 4 5 4 4
5 3 2 1 3 3 1 2 1 2 4 3 3 3 3 3 4 5 6 7 7 7 7 6 7 7 6 6 6 5 4 3 3 3 2 1 1 1 2 2 2 3 3 3 4 4 5 5 5
3 3 1 2 3 3 2 1 1 3 5 5 4 4 4 4 4 5 6 6 7 7 7 7 7 7 6 6 6 5 4 3 2 3 2 2 2 2 2 3 2 3 3 3 3 3 5 5 5
4 1 1 2 3 3 2 1 1 3 4 4 4 4 5 5 5 6 6 6 7 7 7 7 6 6 6 6 6 6 4 4 4 3 2 1 2 2 2 3 2 2 2 3 3 3 4 5 5
3 3 1 1 2 3 3 1 1 1 2 3 3 4 5 5 5 6 6 6 6 6 6 7 6 6 6 6 6 5 5 4 4 3 2 2 2 2 2 3 2 2 2 2 2 2 3 4 4
1 1 2 3 2 2 3 2 1 2 1 1 3 4 5 5 5 5 5 5 5 6 6 6 6 7 7 6 6 6 5 4 3 2 2 2 2 2 2 2 2 2 2 2 2 3 3 4 4
1 1 1 1 3 2 2 3 2 4 2 2 3 4 4 4 5 5 5 5 6 6 7 7 6 7 7 7 6 6 6 4 3 3 3 3 2 2 2 3 3 2 2 2 3 3 3 3 5
Wind_Direction
302 282 269 262 242 229 232 231 275 64 72 40 28 32 46 27 38 93 102 58 72 95 114 120 99 104 110 111 113 114 115 116 116 115 114 111 108 107 106 104 104 103 100 98 94 92 90 87 86
297 290 273 241 237 225 219 199 218 55 70 64 42 34 42 56 58 88 68 53 73 88 111 122 106 99 101 106 111 113 112 113 114 114 113 113 112 110 107 107 106 104 104 101 97 94 93 90 88
282 272 258 234 233 233 193 109 96 90 76 74 79 45 37 50 61 68 54 65 74 82 103 119 111 104 101 101 106 112 112 112 111 111 112 113 113 111 109 109 106 105 103 101 99 97 94 91 89
283 242 243 240 234 234 218 90 89 120 107 86 91 89 82 42 35 54 62 68 76 76 88 111 113 109 104 101 105 108 113 113 113 112 110 110 111 111 109 109 108 106 104 103 102 100 96 93 90
254 247 229 228 233 225 222 24 77 96 132 100 104 108 90 55 47 60 65 66 72 74 79 97 106 113 110 106 108 111 111 114 113 113 111 111 110 113 111 107 108 109 108 108 107 103 99 96 91
256 240 230 223 218 204 165 349 64 85 93 70 97 130 98 66 49 50 60 62 62 62 70 85 86 93 110 114 114 113 111 111 114 110 110 111 112 114 116 112 109 109 113 113 112 108 104 98 93
271 250 241 236 226 207 189 96 15 67 84 58 4 94 116 56 45 50 61 61 62 59 58 60 68 81 87 106 115 112 110 108 108 109 105 105 108 114 114 117 114 112 112 117 117 114 110 104 95
295 285 249 240 228 220 164 177 116 42 98 62 47 62 94 41 46 58 65 63 61 59 54 49 50 54 70 89 106 113 113 109 106 107 107 108 111 113 116 115 117 116 113 116 123 118 114 109 101
288 256 242 245 242 189 103 176 60 66 88 66 62 59 81 76 65 63 59 51 47 51 49 43 38 39 38 69 96 108 116 114 112 113 113 115 113 112 117 120 121 121 118 119 126 126 120 115 108
253 238 240 339 357 351 22 39 106 159 113 73 61 58 80 83 77 73 67 56 48 42 38 37 32 33 34 45 91 102 128 133 131 132 128 128 118 114 114 122 125 124 123 123 126 131 132 127 123
252 245 274 341 7 351 337 337 24 159 121 65 71 65 69 74 73 71 67 61 54 46 34 26 23 32 31 29 47 83 112 141 150 152 141 120 119 118 114 118 124 128 128 128 135 132 134 134 128
260 286 304 315 335 324 320 292 132 66 64 51 83 94 80 82 70 57 47 42 40 38 28 24 17 23 28 26 24 60 60 79 134 165 141 120 109 111 119 126 136 136 135 135 140 145 155 136 129
243 262 300 319 332 315 332 289 128 81 47 52 80 81 67 55 59 57 39 35 37 32 21 16 18 17 18 19 16 32 53 57 175 159 150 133 108 124 123 133 138 136 139 133 137 146 130 106 117
249 260 278 286 280 281 270 291 209 152 91 86 89 82 65 48 38 38 32 21 22 18 15 10 13 17 13 7 1 2 18 37 112 160 164 150 129 111 130 133 137 139 143 146 154 138 106 96 98
232 247 247 246 255 220 263 246 218 157 134 109 99 85 72 53 40 36 27 19 11 6 10 12 5 12 8 2 354 355 355 5 43 153 177 157 138 125 119 141 149 139 151 148 140 125 107 100 95
236 232 231 213 236 211 232 237 151 157 152 118 100 87 69 55 42 32 24 16 6 8 6 7 3 1 2 360 349 347 356 358 358 85 170 164 161 156 136 152 160 144 142 131 134 130 122 117 107
216 248 254 226 206 212 232 251 167 140 141 131 102 87 70 51 39 30 23 17 9 9 7 6 2 1 1 358 345 349 359 1 356 18 54 190 178 173 151 164 157 152 140 137 160 147 145 134 117
263 266 266 243 201 228 231 245 170 134 123 118 105 88 71 52 37 28 22 17 13 10 11 13 8 5 2 0 349 352 352 358 359 13 12 329 223 197 176 161 160 156 159 165 166 152 133 133 131
281 276 284 295 340 287 231 247 199 152 135 117 94 76 70 53 44 39 28 19 16 14 12 12 11 6 5 357 350 329 314 319 325 331 356 346 275 223 206 186 180 177 182 184 178 157 144 142 123
280 283 293 306 320 279 227 249 200 152 142 114 95 69 54 39 35 26 23 21 18 15 8 6 9 360 356 346 331 303 303 288 307 320 325 325 317 264 215 198 195 197 187 185 177 165 165 171 155
281 275 297 291 303 251 231 256 172 127 106 96 77 62 53 36 25 22 16 15 13 13 6 358 360 355 353 350 349 341 329 318 315 304 292 310 302 277 242 219 211 208 198 194 187 179 179 183 189
302 346 304 280 286 267 221 245 174 142 129 106 79 54 44 33 22 19 14 10 10 4 359 358 355 355 352 354 355 332 301 299 295 277 263 290 296 289 276 229 219 210 205 202 203 191 185 180 187
310 319 290 276 269 285 250 231 207 137 144 138 87 62 43 29 17 14 9 4 5 4 356 352 355 355 352 353 349 324 308 301 311 313 297 294 296 296 283 261 227 213 208 206 204 205 196 191 194
312 301 273 252 251 256 241 212 222 148 155 120 83 61 45 24 10 10 8 6 5 5 357 355 356 353 353 349 341 331 321 322 331 322 309 305 285 294 296 283 263 239 218 211 207 208 209 208 206
345 352 337 278 223 245 260 205 209 91 84 76 60 38 37 21 9 7 3 2 357 357 357 355 354 350 349 346 338 336 331 321 315 295 290 296 292 301 284 277 270 266 247 227 218 213 210 208 208
323 340 327 275 277 319 326 235 152 101 80 65 56 42 29 20 11 4 358 358 352 352 352 352 349 346 344 342 335 336 333 321 310 300 287 283 277 283 305 287 275 272 265 245 227 226 223 213 213
340 5 348 302 292 277 251 176 133 90 65 46 35 31 19 2 359 358 354 357 350 349 349 345 344 343 341 339 335 332 330 321 310 295 291 285 294 299 308 301 286 272 263 250 226 232 235 224 220
342 342 342 274 284 283 280 240 238 107 23 13 9 6 357 349 349 351 347 350 348 346 347 347 345 340 337 338 332 331 332 314 303 290 287 286 298 306 300 294 294 296 274 262 239 237 247 230 228
7 5 299 278 277 266 281 285 53 109 77 9 349 355 349 339 338 336 338 342 347 352 350 346 344 344 340 334 327 330 325 316 311 302 299 292 298 298 281 285 278 279 283 267 246 239 253 238 235
50 338 285 235 282 263 264 271 75 86 67 40 355 348 344 336 335 335 339 345 350 351 346 342 340 340 336 332 328 327 323 320 320 316 309 304 289 296 286 290 273 259 269 261 242 238 243 245 240
Height
1502 1504 1506 1509 1511 1511 1506 1498 1493 1494 1496 1499 1501 1502 1505 1510 1514 1524 1524 1522 1521 1521 1522 1524 1526 1528 1530 1532 1533 1534 1536 1537 1539 1540 1541 1542 1543 1544 1545 1546 1547 1548 1548 1549 1550 1551 1551 1552 1553
1502 1505 1508 1508 1509 1511 1503 1496 1497 1497 1499 1501 1503 1506 1508 1513 1517 1520 1521 1522 1522 1522 1523 1525 1527 1529 1530 1532 1534 1535 1537 1538 1539 1541 1542 1543 1544 1546 1546 1547 1548 1549 1550 1551 1551 1552 1553 1554 1555
1503 1505 1508 1505 1504 1503 1500 1496 1497 1498 1501 1503 1506 1509 1513 1517 1519 1521 1522 1522 1523 1523 1524 1525 1527 1529 1531 1532 1534 1536 1537 1539 1540 1542 1543 1544 1545 1546 1547 1548 1549 1550 1551 1552 1553 1554 1555 1555 1556
1504 1506 1506 1505 1501 1496 1495 1496 1497 1499 1502 1505 1508 1512 1516 1521 1521 1522 1522 1523 1523 1523 1525 1526 1528 1529 1531 1533 1535 1536 1538 1539 1541 1542 1544 1545 1546 1547 1548 1549 1550 1551 1552 1553 1554 1555 1556 1557 1558
1504 1505 1504 1502 1498 1495 1495 1497 1498 1500 1503 1506 1509 1513 1518 1521 1521 1521 1522 1522 1523 1524 1525 1526 1528 1530 1532 1533 1535 1537 1538 1540 1541 1543 1544 1546 1547 1548 1549 1550 1551 1552 1553 1554 1555 1556 1557 1558 1559
1505 1502 1502 1500 1495 1494 1496 1499 1500 1502 1505 1507 1510 1513 1519 1521 1520 1521 1521 1522 1524 1524 1525 1527 1528 1530 1532 1534 1536 1537 1539 1540 1541 1543 1544 1546 1547 1549 1550 1551 1552 1553 1554 1555 1556 1557 1558 1559 1560
1504 1500 1497 1494 1495 1496 1498 1500 1502 1504 1506 1509 1511 1514 1518 1519 1520 1521 1522 1523 1524 1525 1525 1527 1529 1530 1532 1534 1536 1537 1539 1540 1542 1543 1544 1546 1547 1549 1550 1551 1552 1553 1554 1556 1557 1558 1559 1560 1561
1502 1501 1495 1494 1495 1497 1500 1502 1504 1506 1509 1511 1512 1515 1519 1520 1520 1521 1522 1523 1524 1525 1525 1526 1528 1530 1532 1534 1535 1537 1539 1540 1542 1543 1545 1546 1548 1549 1550 1551 1552 1554 1555 1556 1557 1558 1560 1561 1562
1502 1504 1498 1496 1496 1499 1501 1503 1506 1508 1510 1512 1514 1517 1518 1519 1520 1520 1521 1522 1523 1524 1525 1526 1527 1529 1531 1533 1535 1536 1538 1540 1541 1543 1544 1546 1547 1548 1550 1551 1552 1554 1555 1556 1557 1559 1560 1561 1562
1502 1502 1499 1499 1499 1501 1502 1504 1506 1508 1510 1513 1515 1517 1518 1518 1519 1519 1520 1521 1522 1523 1524 1526 1527 1528 1530 1531 1534 1535 1537 1539 1540 1542 1544 1545 1547 1548 1549 1550 1552 1553 1555 1556 1557 1558 1560 1561 1562
1502 1501 1501 1501 1502 1503 1504 1505 1507 1508 1512 1514 1516 1517 1517 1518 1519 1519 1520 1521 1522 1523 1524 1525 1526 1527 1528 1530 1532 1534 1536 1538 1539 1541 1543 1544 1546 1547 1548 1549 1550 1552 1554 1555 1557 1558 1559 1561 1562
1503 1503 1504 1504 1505 1506 1506 1507 1509 1510 1514 1515 1516 1517 1518 1519 1519 1520 1521 1521 1522 1523 1523 1524 1525 1526 1527 1529 1530 1532 1534 1536 1538 1540 1541 1543 1544 1545 1547 1548 1549 1551 1553 1555 1556 1557 1559 1560 1562
1504 1505 1506 1506 1506 1506 1507 1507 1509 1512 1514 1515 1516 1517 1518 1519 1520 1521 1521 1522 1522 1522 1522 1523 1523 1524 1526 1527 1528 1530 1532 1534 1536 1538 1540 1541 1542 1544 1545 1547 1548 1550 1552 1553 1555 1557 1558 1559 1561
1504 1505 1506 1506 1506 1507 1507 1509 1510 1512 1513 1515 1516 1517 1518 1519 1520 1520 1520 1520 1521 1521 1521 1522 1522 1523 1524 1525 1527 1528 1530 1532 1534 1536 1538 1539 1540 1542 1544 1545 1547 1549 1550 1552 1554 1556 1557 1558 1560
1505 1506 1506 1505 1506 1506 1508 1509 1510 1511 1513 1514 1516 1517 1518 1519 1519 1519 1520 1519 1520 1520 1520 1520 1521 1522 1522 1524 1525 1526 1528 1530 1532 1533 1535 1537 1538 1540 1542 1543 1545 1547 1549 1551 1552 1554 1555 1557 1558
1503 1504 1504 1504 1504 1505 1510 1509 1510 1511 1512 1514 1516 1517 1518 1519 1519 1519 1519 1519 1519 1519 1519 1519 1519 1520 1521 1522 1523 1524 1525 1527 1529 1531 1533 1534 1536 1538 1539 1541 1543 1545 1546 1548 1550 1552 1553 1555 1556
1503 1504 1502 1503 1503 1503 1507 1509 1510 1510 1511 1514 1516 1517 1518 1519 1519 1519 1518 1518 1518 1517 1517 1517 1517 1518 1518 1519 1521 1522 1523 1525 1526 1528 1530 1531 1532 1534 1536 1538 1540 1542 1544 1545 1547 1549 1551 1552 1554
1507 1504 1500 1500 1501 1503 1506 1508 1509 1510 1511 1513 1515 1517 1518 1519 1519 1519 1518 1517 1516 1516 1516 1516 1515 1515 1516 1517 1518 1519 1520 1522 1523 1525 1526 1528 1530 1531 1533 1535 1537 1539 1541 1543 1544 1546 1549 1550 1552
1504 1503 1502 1500 1500 1503 1505 1506 1507 1509 1511 1513 1515 1517 1518 1519 1519 1518 1518 1517 1515 1515 1514 1514 1514 1514 1514 1514 1514 1515 1516 1518 1520 1522 1523 1524 1526 1528 1529 1531 1534 1536 1538 1539 1542 1543 1546 1548 1549
1504 1503 1503 1502 1502 1503 1504 1504 1504 1507 1510 1513 1515 1517 1518 1518 1518 1518 1517 1515 1514 1513 1513 1512 1512 1512 1512 1512 1513 1513 1513 1514 1516 1518 1519 1520 1522 1524 1526 1528 1530 1532 1534 1536 1538 1540 1542 1544 1546
1504 1505 1506 1505 1503 1501 1503 1505 1504 1508 1511 1514 1516 1517 1517 1518 1517 1517 1516 1515 1514 1512 1512 1510 1509 1510 1510 1510 1510 1510 1511 1511 1512 1513 1515 1516 1518 1520 1522 1524 1526 1528 1530 1532 1534 1537 1539 1540 1543
1507 1505 1505 1505 1507 1507 1504 1510 1505 1507 1511 1514 1516 1516 1517 1517 1517 1516 1515 1514 1513 1511 1511 1509 1508 1508 1507 1507 1507 1507 1508 1506 1508 1509 1510 1512 1514 1516 1518 1520 1522 1524 1526 1528 1531 1533 1535 1537 1538
1509 1506 1505 1504 1506 1510 1505 1509 1507 1508 1513 1515 1515 1516 1517 1517 1517 1516 1515 1514 1513 1511 1510 1508 1506 1506 1505 1505 1504 1505 1504 1504 1505 1506 1507 1508 1510 1512 1514 1516 1518 1520 1522 1524 1526 1528 1531 1533 1535
1510 1507 1504 1504 1508 1514 1505 1507 1509 1512 1513 1514 1515 1516 1516 1517 1516 1515 1514 1513 1511 1510 1508 1506 1505 1504 1503 1502 1502 1502 1501 1500 1500 1502 1502 1504 1506 1508 1509 1511 1513 1515 1517 1519 1522 1524 1526 1529 1531
1513 1514 1515 1513 1512 1508 1503 1507 1515 1513 1513 1514 1515 1516 1516 1516 1515 1514 1513 1511 1509 1508 1506 1504 1503 1502 1501 1500 1499 1499 1498 1498 1498 1498 1499 1500 1501 1503 1505 1507 1508 1510 1512 1514 1517 1519 1521 1524 1526
1517 1518 1523 1522 1513 1509 1509 1511 1517 1514 1514 1515 1515 1516 1515 1515 1515 1513 1512 1509 1508 1506 1504 1503 1502 1500 1499 1498 1497 1496 1496 1496 1496 1496 1496 1497 1498 1499 1501 1502 1504 1506 1508 1509 1511 1514 1516 1519 1521
1520 1520 1521 1524 1517 1519 1513 1514 1515 1514 1515 1516 1516 1516 1515 1515 1514 1512 1511 1509 1507 1505 1503 1502 1500 1498 1497 1496 1494 1493 1493 1493 1493 1493 1493 1493 1494 1495 1497 1498 1499 1501 1503 1505 1507 1508 1511 1513 1516
1524 1523 1525 1524 1522 1519 1512 1511 1516 1518 1517 1517 1517 1516 1515 1515 1513 1511 1509 1508 1506 1504 1502 1500 1498 1496 1495 1494 1492 1491 1490 1490 1490 1490 1489 1489 1490 1491 1492 1493 1494 1496 1498 1499 1501 1503 1506 1508 1510
1528 1527 1526 1524 1520 1521 1521 1521 1517 1517 1517 1518 1517 1516 1515 1514 1512 1511 1509 1507 1505 1502 1500 1498 1496 1494 1492 1491 1490 1489 1487 1487 1486 1486 1485 1486 1486 1487 1488 1489 1490 1491 1493 1495 1496 1499 1500 1502 1504
1529 1529 1530 1531 1526 1520 1524 1527 1517 1517 1517 1517 1517 1516 1515 1513 1512 1510 1508 1505 1503 1500 1498 1496 1493 1491 1490 1488 1487 1486 1484 1483 1482 1481 1482 1482 1482 1483 1484 1485 1486 1487 1488 1490 1492 1493 1495 1497 1499